Theta_e
309 308 308 308 308 308 308 308 308 308 309 309 309 308 309 308 308 307 306 310 300 293 294 299 300 296 295 296 292 296 298 298 298 296 296 296 296 300 301 306 306 304 305 304 307 303 300 320 320 313 321 327 328 329
308 308 308 308 308 308 308 308 308 307 309 308 308 308 308 307 307 307 300 307 305 296 296 304 304 305 302 302 298 298 297 296 300 299 302 301 300 306 304 299 311 305 310 307 309 309 322 323 323 325 326 328 329 330
308 308 308 309 309 309 308 308 308 308 308 308 307 307 307 307 307 306 302 306 302 296 297 299 299 306 308 306 306 296 300 302 301 304 299 301 299 306 304 304 310 311 318 313 316 319 319 321 324 326 328 327 332 334
309 308 308 309 308 308 308 308 308 307 307 307 306 306 306 307 306 306 302 306 302 297 290 296 306 304 308 308 306 305 301 307 305 302 299 301 299 309 305 307 314 307 313 318 317 319 320 321 322 324 325 327 328 330
309 308 309 308 307 307 307 307 307 307 306 306 306 306 307 306 304 306 306 306 306 295 290 295 303 308 309 307 306 305 303 302 299 298 297 299 306 306 310 311 301 308 308 311 311 320 320 317 320 322 320 320 322 324
308 308 308 308 308 308 307 307 307 306 306 306 306 307 306 306 306 304 298 305 306 306 295 291 303 305 309 307 307 306 305 303 303 297 299 302 308 306 304 300 306 311 315 320 317 321 318 317 317 317 315 317 318 319
308 308 308 308 308 308 307 307 307 306 306 306 306 306 306 307 306 301 298 302 307 307 294 290 295 305 310 309 307 307 307 304 302 298 300 302 303 300 302 298 307 310 316 317 319 317 312 314 312 316 316 317 316 317
308 308 308 308 308 307 307 307 307 307 307 306 306 307 307 307 306 301 306 306 306 299 296 291 294 302 309 303 302 307 303 303 302 303 302 300 301 305 298 304 307 310 312 312 314 316 316 315 314 316 314 315 315 315
308 308 308 308 308 307 308 308 308 308 308 308 308 308 307 304 300 308 307 307 307 298 290 289 288 292 307 302 304 304 305 297 305 298 297 299 298 295 301 303 304 306 307 308 311 310 310 309 309 311 313 313 311 315
308 308 308 308 308 308 308 308 308 307 307 309 308 301 299 306 306 310 305 299 297 298 297 293 301 298 303 303 301 301 301 298 292 297 304 299 296 304 306 307 308 309 308 308 305 305 307 308 310 309 311 314 316 315
307 307 308 308 308 308 308 308 308 307 309 307 303 302 307 312 308 303 297 295 297 294 300 301 303 301 306 300 299 304 300 300 293 299 299 295 292 302 308 309 311 311 311 311 311 311 310 311 311 312 313 314 316 318
307 307 307 307 308 308 308 308 308 308 307 304 303 306 307 304 300 295 294 297 297 294 300 302 303 305 305 307 303 302 299 299 293 303 298 290 298 306 308 309 311 313 312 313 312 309 311 313 315 314 315 315 316 319
307 307 307 307 307 307 307 308 308 308 307 308 304 301 301 301 291 291 290 293 295 302 304 306 303 307 308 307 304 304 297 297 306 299 292 296 302 308 310 310 310 313 313 313 312 314 314 314 314 314 315 318 319 319
307 307 307 307 307 307 308 308 307 308 307 300 298 290 292 292 296 299 299 300 305 304 305 305 303 304 307 303 304 297 302 302 296 291 293 300 304 306 311 313 311 311 312 312 312 312 312 312 313 316 318 318 318 319
307 307 307 308 308 308 308 308 307 312 308 300 299 288 295 299 303 302 303 303 306 308 307 304 304 306 303 302 303 302 298 293 293 292 299 305 307 309 310 311 312 312 312 312 312 312 313 313 314 315 317 319 320 321
306 307 310 308 308 307 307 310 314 314 310 306 301 297 301 299 299 302 303 304 309 309 309 306 303 301 300 300 297 293 292 288 293 299 306 310 308 312 314 314 314 315 314 314 314 313 313 314 314 315 316 316 317 320
306 309 308 308 307 307 310 311 313 305 304 299 298 303 302 300 300 304 305 306 311 307 303 304 299 297 303 297 295 295 291 294 301 303 308 313 312 314 315 315 316 315 315 316 315 315 316 316 316 315 314 315 316 317
308 310 308 308 308 311 316 312 308 304 298 301 299 301 303 304 304 305 307 309 308 307 306 302 304 299 296 293 295 300 303 307 311 313 315 316 317 317 317 316 316 317 316 316 316 318 318 316 313 312 315 315 316 315
308 309 308 308 309 308 306 307 308 300 301 302 303 305 304 305 308 309 309 310 311 310 308 304 300 297 297 301 303 305 307 311 312 315 316 317 318 317 316 316 316 316 315 314 314 312 313 315 312 312 312 313 312 312
306 308 308 308 310 310 302 306 310 303 300 302 304 303 304 304 307 308 308 308 307 305 302 298 299 302 303 307 309 309 312 315 316 312 312 311 312 313 313 312 311 313 312 313 311 304 311 310 311 310 310 310 311 310
310 313 310 312 314 311 308 305 305 305 305 302 305 304 303 307 305 306 306 309 305 304 303 307 309 312 315 317 316 316 315 314 312 313 312 310 311 311 310 311 311 310 308 308 307 307 306 307 307 307 308 309 309 309
312 309 313 314 310 309 308 309 305 306 303 303 305 306 302 300 303 302 308 305 302 305 308 308 312 315 314 313 315 316 315 316 317 313 307 311 311 309 308 308 308 307 307 307 306 305 305 305 306 306 306 306 305 308
309 310 312 311 305 302 302 312 304 304 300 301 306 301 300 302 306 309 302 303 306 310 316 314 312 312 310 310 311 309 313 312 307 308 308 309 309 309 308 308 308 306 304 305 306 305 304 300 303 304 305 305 305 306
305 307 305 305 306 301 310 306 310 307 307 303 303 299 303 305 310 302 298 303 310 314 310 313 309 307 309 310 306 305 306 307 306 307 307 306 306 307 309 308 307 307 306 305 304 304 303 303 300 304 304 303 304 304
299 298 306 296 309 305 302 303 303 306 300 303 301 302 305 308 302 299 298 304 309 306 306 307 307 306 304 304 304 304 306 304 303 303 305 305 305 305 306 306 307 305 306 304 302 302 302 303 303 303 303 303 302 301
295 306 300 306 307 304 304 300 301 301 303 301 302 308 310 307 298 298 300 305 303 305 305 305 304 304 303 303 302 301 301 303 303 302 303 304 303 302 301 300 300 302 304 303 301 301 300 302 302 302 301 301 297 300
299 304 313 316 311 310 307 310 310 307 300 300 304 303 303 297 295 296 300 300 300 304 306 306 305 303 302 303 303 303 302 302 302 301 303 304 305 304 302 299 298 299 302 303 302 301 300 299 299 299 298 299 299 299
310 310 306 310 310 313 305 305 302 301 302 307 305 300 298 296 294 300 302 305 306 306 304 305 305 304 303 302 303 301 301 301 302 302 302 303 303 302 302 301 301 294 300 300 299 299 298 296 295 295 296 295 296 297
310 314 313 308 308 307 307 303 303 306 308 306 303 298 295 300 303 303 304 304 304 303 302 302 301 303 303 302 301 300 300 298 295 293 293 294 294 296 298 298 298 298 298 298 291 294 295 294 294 294 295 296 296 295
309 314 308 307 305 305 308 310 308 310 309 307 305 302 301 302 305 311 311 311 308 305 304 303 302 301 298 297 296 297 298 297 295 293 290 290 292 295 295 295 296 296 296 296 295 296 293 294 294 295 293 293 292 292
311 309 307 308 307 311 310 311 312 310 308 307 307 302 300 303 309 313 307 307 305 304 302 300 300 299 296 295 295 293 293 296 295 294 292 292 293 293 294 294 295 295 295 294 294 294 293 292 292 291 290 290 290 290
310 306 307 302 306 312 312 311 308 307 307 305 304 304 303 303 300 306 305 304 302 300 298 299 297 296 297 297 296 296 291 296 294 293 291 290 291 292 293 293 293 294 293 293 293 293 292 291 290 290 289 289 288 289
309 308 307 306 306 304 310 310 307 305 305 305 306 308 306 304 299 303 307 306 302 300 299 299 299 298 298 297 296 296 294 296 290 287 287 286 285 287 291 293 293 293 293 293 292 291 290 290 289 289 288 288 288 289
Wind_Speed
23 23 23 23 23 23 22 20 19 16 15 15 14 13 12 12 10 8 6 9 6 4 11 21 23 22 17 15 10 10 6 5 4 7 10 13 15 19 20 22 24 23 21 19 19 23 24 5 11 10 7 10 13 14
23 24 24 23 23 22 20 17 16 15 14 11 13 12 8 9 9 8 4 5 6 6 10 16 19 20 22 20 18 14 10 4 4 5 3 7 4 10 16 16 26 26 20 16 7 7 10 9 8 6 5 8 9 10
23 21 19 20 22 20 15 14 12 12 12 13 8 7 9 10 10 10 4 4 1 3 10 17 17 24 25 25 21 14 10 9 4 9 4 4 8 5 10 11 16 7 12 18 13 12 13 10 10 6 5 3 11 15
20 19 20 17 16 15 13 11 12 12 10 8 8 9 10 9 7 4 2 2 3 3 5 12 11 5 4 14 22 20 16 6 2 6 7 3 5 4 3 7 5 7 16 7 18 16 16 15 14 10 10 11 12 16
17 18 16 13 15 16 15 14 12 9 8 9 9 10 11 4 2 6 5 6 6 3 4 11 19 16 18 14 16 19 16 12 6 4 4 4 5 3 6 1 5 2 5 5 9 17 17 14 11 11 11 12 13 15
15 14 14 15 15 15 16 13 12 10 10 9 9 8 6 6 8 6 2 1 3 2 4 6 7 7 2 12 9 13 11 6 2 2 5 4 8 8 5 3 8 6 10 11 16 20 20 18 17 15 14 12 11 16
14 14 15 15 14 13 12 13 13 12 11 10 11 10 10 9 8 3 5 4 5 3 1 5 5 4 5 10 10 8 9 7 3 2 5 4 5 6 3 3 8 10 9 9 18 20 18 13 12 13 13 16 8 14
15 14 14 14 14 13 13 13 14 14 14 13 13 13 12 11 12 4 3 2 4 1 3 4 5 5 9 8 8 7 8 8 9 3 2 4 5 2 1 5 11 9 15 18 19 19 17 15 13 15 13 14 13 13
15 14 13 14 12 13 14 16 17 19 18 15 15 15 7 6 2 2 6 6 3 2 2 3 3 5 11 5 2 5 2 4 4 1 3 4 1 3 6 11 14 13 10 13 15 17 17 17 14 11 11 10 8 8
14 15 15 14 15 16 16 17 19 23 23 16 7 3 4 2 2 8 5 3 4 6 5 5 4 5 7 6 6 6 4 3 1 4 3 2 4 8 9 11 11 12 11 11 13 15 13 14 10 8 10 9 4 6
14 15 14 14 14 16 18 19 19 23 13 3 4 3 8 4 3 3 3 3 3 4 4 4 6 6 6 3 6 3 3 6 4 3 1 4 3 6 10 10 9 10 11 10 10 9 8 4 5 4 2 7 8 5
14 14 14 15 16 18 22 20 18 10 7 8 7 7 5 2 3 4 3 4 4 3 3 5 6 4 3 1 3 7 2 1 3 3 4 3 3 6 8 10 8 6 7 8 10 9 5 6 4 5 4 4 1 2
16 16 16 17 18 20 22 20 17 11 14 4 5 3 5 4 4 6 8 3 6 7 2 4 6 3 3 10 7 6 2 5 4 5 4 3 2 3 7 6 10 8 10 8 12 9 4 9 6 3 4 5 6 4
18 17 18 17 17 20 21 19 13 8 4 4 5 5 5 5 5 5 10 9 9 11 9 8 7 5 5 2 5 6 3 2 5 4 5 6 7 4 4 7 8 10 7 8 9 7 8 7 7 4 7 6 5 7
21 20 15 12 18 22 21 16 13 5 3 4 4 5 5 6 11 10 9 9 10 10 8 7 6 1 6 5 7 8 6 7 7 4 3 5 5 4 5 6 6 6 9 7 6 7 8 7 8 7 9 6 6 7
24 22 6 17 21 24 22 13 6 2 2 1 2 2 6 7 11 12 11 11 12 10 7 1 5 6 10 7 8 10 5 5 4 3 3 5 4 4 5 6 6 6 7 8 6 8 8 5 5 7 8 7 8 8
25 5 16 20 23 26 7 5 4 3 6 3 4 9 9 9 9 11 11 11 12 10 9 6 8 6 2 5 6 6 4 4 3 3 2 6 6 6 5 7 8 6 7 8 5 5 4 4 8 7 7 6 5 6
9 13 17 19 18 12 1 3 4 4 4 7 8 9 9 7 9 9 9 9 8 9 9 7 6 11 7 5 4 1 3 2 1 5 5 6 6 6 5 5 6 8 7 7 7 5 7 7 6 4 4 2 4 5
15 15 18 17 11 6 4 4 5 4 4 6 8 7 7 7 7 7 7 5 5 7 5 5 8 6 6 2 7 7 7 6 5 5 6 7 7 8 5 5 8 8 10 9 11 8 7 8 8 9 9 9 8 6
20 12 12 15 8 4 4 3 3 4 5 5 6 7 6 7 7 8 9 10 8 8 8 6 9 8 7 7 7 9 9 7 7 5 6 5 8 10 10 8 7 6 6 6 9 11 8 8 9 9 8 9 8 9
10 11 11 7 2 5 4 4 3 3 4 4 6 4 7 10 11 11 12 11 10 10 9 8 9 8 9 8 8 7 8 9 8 6 6 6 9 7 6 6 6 5 7 7 8 7 7 8 8 8 8 7 8 9
5 10 5 2 3 3 3 4 4 5 3 3 6 9 6 6 7 7 6 7 4 4 4 5 6 8 9 12 9 9 8 5 8 5 5 4 5 4 5 5 5 6 6 7 7 7 7 8 7 9 8 8 7 7
9 3 4 3 3 3 3 3 3 4 4 3 4 4 2 2 3 4 5 5 4 3 5 5 8 10 10 11 13 14 13 13 9 8 7 5 5 4 5 5 5 5 7 7 7 7 7 7 7 8 7 8 8 8
3 4 6 5 4 3 2 4 1 1 2 3 3 3 3 3 2 3 3 2 1 2 6 12 10 9 10 12 11 12 13 12 11 9 10 10 9 6 3 2 4 5 5 7 8 9 9 9 9 8 8 9 9 10
4 4 3 3 2 4 2 3 3 2 4 4 2 2 2 1 2 4 5 5 8 10 9 8 7 8 9 10 10 11 14 12 11 11 10 10 11 10 10 11 10 12 11 10 11 11 11 10 10 10 10 9 11 12
2 2 2 7 3 5 5 5 4 5 3 3 3 2 1 1 3 7 5 10 9 9 9 10 10 10 10 10 11 11 12 12 11 9 8 8 8 9 10 10 10 10 13 11 11 13 13 12 12 13 13 14 10 13
4 5 1 1 4 3 3 1 1 2 2 3 3 4 2 5 7 4 3 4 5 8 10 12 12 12 11 9 8 7 8 10 12 11 11 8 6 10 10 10 12 12 11 11 12 13 13 15 16 15 12 12 13 12
4 5 7 6 3 2 6 6 5 6 7 5 5 6 5 6 4 4 6 9 10 13 11 9 6 5 6 9 9 10 9 11 12 11 10 8 10 11 11 10 11 11 10 9 10 12 12 12 14 14 14 12 11 11
4 3 4 7 4 3 5 6 6 7 9 8 3 6 4 3 6 8 7 5 4 2 1 5 6 7 8 9 9 9 10 10 14 16 16 11 10 10 11 10 10 10 10 11 7 6 9 10 11 11 12 11 11 12
8 4 1 5 11 6 7 9 10 9 9 9 7 9 5 2 2 2 1 0 1 3 5 8 8 10 11 11 10 11 10 10 11 12 12 13 13 12 11 11 11 10 10 10 10 11 8 10 10 10 12 11 10 11
4 7 6 5 6 3 10 7 8 9 8 8 7 8 5 4 4 4 5 6 6 7 9 10 9 10 10 11 10 9 10 8 11 13 12 11 10 10 10 10 10 10 10 10 10 10 11 11 12 12 12 12 12 11
3 3 3 3 5 6 9 4 1 5 4 4 6 4 3 2 2 1 8 9 10 10 7 8 9 9 10 9 9 7 5 7 10 10 14 10 9 10 11 9 9 10 11 11 10 10 12 12 11 11 11 13 13 13
3 7 6 6 3 1 6 6 4 4 4 4 3 1 5 5 5 4 3 5 6 8 8 7 6 6 8 8 10 9 7 9 11 9 7 3 6 9 10 9 11 12 14 12 12 12 13 15 13 13 13 13 13 13
Wind_Direction
314 313 311 313 314 314 311 307 306 311 300 287 292 278 268 275 270 236 251 220 218 234 267 270 273 278 281 287 262 281 261 162 229 242 242 239 241 236 239 225 209 205 201 217 210 229 234 74 188 231 13 321 316 310
316 317 314 312 311 312 313 312 306 308 304 309 300 295 260 272 260 223 265 235 207 237 271 309 282 272 261 256 273 284 293 299 297 278 349 320 296 292 236 252 210 205 211 207 231 200 82 53 56 64 9 328 320 322
322 325 324 318 318 317 315 316 318 319 317 309 322 316 302 286 263 212 250 286 279 291 268 250 251 248 230 236 243 264 257 235 232 327 314 277 267 316 267 232 221 339 235 213 143 122 103 102 84 75 85 31 7 15
326 331 331 336 348 356 355 340 325 316 328 328 313 314 312 300 266 249 250 247 250 268 279 291 261 268 236 212 203 222 244 118 52 325 299 260 283 333 261 329 340 36 282 123 99 117 105 89 80 85 71 58 60 37
335 337 344 351 352 349 343 341 344 342 333 327 321 320 319 306 226 255 235 237 212 203 289 297 299 265 226 218 197 207 226 255 283 321 285 266 284 317 289 258 3 19 21 349 210 151 83 100 81 92 89 80 67 80
351 353 353 349 349 358 3 6 359 350 341 335 327 330 323 305 275 284 219 131 255 208 276 296 311 279 304 171 192 191 204 197 124 320 269 268 269 334 318 50 5 339 277 309 78 92 104 97 86 68 59 59 70 89
348 347 345 346 345 344 353 355 350 341 330 319 313 309 307 304 286 296 324 334 33 84 308 282 265 264 181 165 178 179 184 142 119 233 249 286 314 356 328 34 27 12 42 93 98 98 85 68 76 69 46 24 34 62
350 344 341 345 348 352 352 349 336 322 310 301 297 294 284 281 268 237 236 165 294 155 239 271 288 278 198 165 150 170 173 161 182 208 291 307 327 292 283 116 93 72 76 66 73 76 87 80 57 47 46 26 15 34
355 349 340 340 345 344 343 336 333 328 321 299 286 286 275 228 253 82 134 176 190 222 303 245 257 271 139 343 243 153 123 202 77 73 258 201 264 268 95 76 70 69 74 92 76 71 65 53 59 24 22 39 22 36
350 349 348 345 342 342 335 332 331 325 319 303 280 215 258 56 125 164 153 199 201 191 224 257 264 298 16 190 140 137 178 78 245 224 215 106 37 43 76 74 75 71 78 83 76 65 57 62 20 37 22 351 17 6
344 341 336 332 332 330 327 326 329 323 289 306 314 291 345 319 270 216 238 222 219 241 226 308 314 329 63 1 34 344 149 178 202 161 189 76 349 51 51 61 71 76 85 78 79 82 81 70 19 332 336 297 320 23
325 324 324 320 319 325 332 327 325 307 339 334 301 285 270 296 304 308 303 283 256 323 123 297 326 318 165 12 268 173 198 97 86 256 85 69 322 54 53 77 63 100 96 111 113 103 61 348 330 293 136 155 256 19
323 323 316 311 313 316 328 329 327 306 280 214 225 310 340 11 346 338 354 325 337 347 261 232 289 353 214 211 236 147 105 49 123 58 43 91 211 77 80 119 120 115 119 127 133 136 181 217 197 115 85 360 117 86
327 321 310 309 308 322 328 329 327 307 284 17 359 17 20 344 332 335 325 331 299 350 347 360 320 343 340 297 78 340 90 166 72 58 28 96 84 19 28 66 111 106 101 106 107 91 99 84 51 15 94 94 66 58
325 321 313 312 336 330 330 326 302 276 350 42 19 12 346 295 285 266 292 338 353 332 333 339 276 320 14 29 13 8 42 46 28 26 62 94 136 174 93 78 66 84 108 95 60 74 50 40 67 49 53 55 67 91
324 310 355 350 338 328 324 299 234 271 201 238 147 353 329 320 356 0 356 357 349 313 306 264 349 27 28 22 19 13 35 31 14 352 40 89 39 82 76 88 80 40 38 90 102 71 59 52 71 65 57 53 52 49
310 342 8 346 333 313 291 287 290 354 4 17 321 19 356 353 355 359 346 353 328 352 0 16 31 26 89 38 41 29 352 302 282 298 312 48 38 41 40 40 44 65 27 44 63 76 348 20 67 49 44 14 55 51
299 330 347 332 327 302 288 350 313 353 12 25 6 7 348 360 2 351 354 6 355 1 30 49 34 38 44 31 45 114 267 293 320 75 79 71 60 48 52 64 56 49 53 23 3 36 39 5 1 67 127 9 217 93
310 311 312 304 317 293 340 36 328 0 8 42 350 3 1 8 6 4 0 9 25 15 38 37 47 37 57 69 20 33 48 35 41 64 56 53 54 46 48 59 78 63 69 47 15 38 64 42 14 8 7 4 358 41
293 287 288 292 292 290 333 37 262 337 10 340 9 4 17 11 15 19 25 30 48 54 64 67 64 52 42 40 23 27 24 20 27 53 44 40 81 80 52 49 49 54 68 64 74 21 23 20 20 4 14 339 339 348
270 12 317 278 15 2 352 344 25 20 328 337 8 346 32 27 26 28 14 14 39 30 40 33 46 47 48 38 34 22 23 23 33 31 37 20 8 26 34 49 52 47 32 29 17 29 10 22 2 347 332 335 360 309
350 323 291 3 337 3 34 27 0 348 322 298 13 31 35 17 22 13 355 47 49 28 14 3 32 54 54 50 45 36 20 64 79 75 29 306 3 41 39 28 12 14 24 32 4 7 2 19 1 336 337 358 323 335
286 237 287 333 345 46 321 335 33 25 16 14 357 57 43 25 43 31 34 9 5 336 15 65 81 66 68 67 52 28 10 1 14 37 12 7 91 33 0 18 8 28 3 15 355 5 358 352 13 329 346 352 338 339
194 337 350 357 352 3 308 13 23 340 75 27 29 11 60 31 43 86 70 45 18 185 60 27 32 37 49 35 34 36 8 5 359 21 28 353 349 6 338 342 12 8 27 5 360 355 352 349 329 340 1 338 349 358
317 340 285 304 201 300 26 24 31 71 76 28 67 95 81 355 69 72 53 26 11 32 30 42 50 39 27 25 23 21 17 4 3 355 22 356 357 350 354 0 20 48 22 8 349 345 344 339 339 347 336 343 1 349
10 107 6 356 18 343 2 1 22 13 356 11 22 350 189 291 76 58 30 356 15 20 23 21 19 20 33 22 12 9 5 357 355 351 9 357 12 7 3 356 355 5 13 343 338 352 335 336 339 341 348 357 19 4
357 16 9 128 305 304 319 57 93 313 340 4 308 295 294 55 55 63 74 7 14 5 20 19 22 21 12 1 360 4 359 357 6 346 338 327 30 48 25 358 360 16 330 358 1 347 360 353 346 348 347 336 333 337
345 348 338 342 337 46 323 348 16 15 3 4 2 357 47 38 64 22 41 31 28 35 27 11 352 312 341 356 354 351 16 3 0 358 342 8 31 33 19 2 13 348 353 36 2 355 9 357 345 332 336 330 326 336
256 24 356 324 13 58 350 34 9 25 356 337 37 67 75 64 11 48 39 40 45 48 283 288 14 352 0 1 12 9 32 14 8 7 0 4 9 11 8 359 353 353 352 347 69 37 30 1 331 326 319 328 350 1
5 25 104 347 46 40 37 37 44 55 55 67 89 95 88 123 188 177 183 199 323 301 331 3 21 25 3 0 11 7 45 36 25 15 358 352 353 358 355 347 351 350 351 349 345 350 33 339 341 5 12 2 358 351
5 11 22 64 58 22 91 83 74 67 73 84 95 118 142 190 145 261 12 329 353 22 27 0 17 32 7 7 16 14 358 35 40 23 14 343 355 357 346 355 355 354 355 346 353 357 9 359 8 6 4 358 354 340
2 16 2 350 96 105 142 134 50 92 133 145 126 121 138 179 102 30 26 359 10 14 36 15 19 29 26 2 12 24 341 14 37 24 15 4 1 356 347 7 358 360 347 345 359 9 14 6 1 1 357 354 350 349
25 45 5 356 11 127 127 134 162 165 220 112 99 40 78 70 79 26 74 45 34 6 359 10 30 20 43 20 15 359 350 62 100 124 109 20 334 328 323 12 358 359 354 2 7 6 8 2 2 357 352 348 346 346